This is the latest recevied weather packets stored in our database for station/object AF5AA. If no packets are shown the sender has not sent any weather packets the latest 10 day(s).
| Time | Temp. | Humidity | Pressure | Rain* | Wind** | Luminosity | Snow |
|---|---|---|---|---|---|---|---|
| 1777863722 | 16.67° C | 81% | 1016.8 hPa | 0 mm | - | 0 W/m² | - |
| 1777863418 | 16.67° C | 82% | 1016.5 hPa | 0 mm | - | 0 W/m² | - |
| 1777863115 | 16.67° C | 82% | 1017 hPa | 0 mm | - | 0 W/m² | - |
| 1777862812 | 17.22° C | 82% | 1016.6 hPa | 0 mm | - | 0 W/m² | - |
| 1777862508 | 17.22° C | 81% | 1016.6 hPa | 0 mm | - | 0 W/m² | - |
| 1777862205 | 17.22° C | 80% | 1016.6 hPa | 0 mm | - | 0 W/m² | - |
| 1777861901 | 17.22° C | 79% | 1016.6 hPa | 0 mm | - | 0 W/m² | - |
| 1777861598 | 17.78° C | 79% | 1016.6 hPa | 0 mm | - | 0 W/m² | - |
| 1777861293 | 17.78° C | 81% | 1016.3 hPa | 0 mm | - | 0 W/m² | - |
| 1777860992 | 17.78° C | 77% | 1016.6 hPa | 0 mm | - | 0 W/m² | - |
| 1777860688 | 17.78° C | 76% | 1016.6 hPa | 0 mm | - | 0 W/m² | - |
| 1777860385 | 17.78° C | 78% | 1016.6 hPa | 0 mm | - | 0 W/m² | - |
| 1777860081 | 18.33° C | 80% | 1016.6 hPa | 0 mm | - | 0 W/m² | - |
| 1777859778 | 18.33° C | 77% | 1016.4 hPa | 0 mm | - | 0 W/m² | - |
| 1777859474 | 18.33° C | 77% | 1016.3 hPa | 0 mm | - | 0 W/m² | - |
| 1777859170 | 18.33° C | 78% | 1016.4 hPa | 0 mm | - | 0 W/m² | - |
| 1777858868 | 18.33° C | 77% | 1016.3 hPa | 0 mm | - | 0 W/m² | - |
| 1777858565 | 18.89° C | 78% | 1016.3 hPa | 0 mm | - | 0 W/m² | - |
| 1777858262 | 19.44° C | 77% | 1016.3 hPa | 0 mm | - | 0 W/m² | - |
| 1777857959 | 19.44° C | 75% | 1016.3 hPa | 0 mm | - | 0 W/m² | - |
| 1777857657 | 19.44° C | 71% | 1016.3 hPa | 0 mm | - | 0 W/m² | - |
| 1777857354 | 20° C | 74% | 1016.3 hPa | 0 mm | - | 0 W/m² | - |
| 1777857050 | 20° C | 72% | 1016.2 hPa | 0 mm | - | 0 W/m² | - |
| 1777856745 | 20.56° C | 74% | 1016.1 hPa | 0 mm | - | 1 W/m² | - |
| 1777856442 | 20.56° C | 72% | 1016 hPa | 0 mm | - | 1 W/m² | - |
* Rain latest hour (hover to see other rain measurements)
** Current wind speed in m/s (hover to see current wind gust speed)